Regional Weather Roundup
Issued by NWS Sterling, VA

Home | Current Version | Previous Version | Graphics & Text | Print | Product List | Glossary On
Versions: 1 2 3 4 5 6 7 8 9 10 11 12 13 14 15 16 17 18 19 20 21 22 23 24 25 26 27 28 29 30 31 32 33 34 35 36 37 38 39 40 41 42 43 44 45 46 47 48 49 50
000
ASUS41 KLWX 221311
RWRLWX

REGIONAL WEATHER ROUNDUP
NATIONAL WEATHER SERVICE BALTIMORE MD/WASHINGTON DC
900 AM EDT TUE AUG 22 2017

Note: "FAIR" indicates few or no clouds below 12,000 feet
with no significant weather and/or obstructions to visibility.
 TC=TEMPERATURE CELSIUS

 * =Non NWS site. Station does not report precipitation (e.g. rain,
    snow, etc.), thunder, or fog.

DCZ001-MDZ009-015-VAZ040>042-051-053>054-221400-
WASHINGTON METRO

CITY           SKY/WX    TMP DP  RH WIND       PRES   REMARKS
WASHINGTON NAT MOSUNNY   79  75  87 S10       30.04F
DULLES         MOSUNNY   77  73  87 SW7       30.04F
ANDREWS AFB    SUNNY     79  72  80 SW12      30.04F
FT BELVOIR     SUNNY     79  72  79 S6        30.04F
QUANTICO       MOSUNNY   79  75  87 SW7       30.05F
COLLEGE PARK*  SUNNY     79  72  79 SW5       30.03F
LEESBURG*      SUNNY     75  73  94 CALM      30.05F
MANASSAS*      MOSUNNY   76  72  87 S3        30.05F
GAITHERSBURG*  SUNNY     79  72  79 VRB5      30.06F

$$

MDZ006>007-011-014-221400-
BALTIMORE METRO

CITY           SKY/WX    TMP DP  RH WIND       PRES   REMARKS
BWI AIRPORT    MOSUNNY   78  75  90 SW8       30.03F
MD SCIENCE CTR   N/A     79  73  82 MISG      30.05F
MARTIN STATE   MOSUNNY   79  77  94 CALM      30.05S
FORT MEADE*    SUNNY     73  72  94 CALM      30.06F

$$

MDZ012-015-019>023-221400-
MARYLAND EASTERN SHORE

CITY           SKY/WX    TMP DP  RH WIND       PRES   REMARKS
OCEAN CITY     MOSUNNY   82  77  84 SW10      30.08F HX  90
SALISBURY      SUNNY     81  78  91 SW8       30.07F
BAY BRIDGE AP* SUNNY     81  73  78 SW7       30.04F
CAMBRIDGE*     SUNNY     82  75  78 VRB7      30.05F

$$

MDZ017>025-221400-
SOUTHERN MARYLAND

CITY           SKY/WX    TMP DP  RH WIND       PRES   REMARKS
PATUXENT RIVER MOSUNNY   79  75  87 SW10      30.05F
ST INIGOES     SUNNY     81  76  84 S6        30.06F
LEONARDTOWN*   SUNNY     79  72  78 S7        30.07F

$$

MDZ003>005-221400-
NORTH CENTRAL MARYLAND

CITY           SKY/WX    TMP DP  RH WIND       PRES   REMARKS
FREDERICK*     SUNNY     77  77 100 SW6       30.06F
HAGERSTOWN APT SUNNY     77  70  79 S7        30.04F
WESTMINSTER*   SUNNY     75  72  88 SW7       30.05F

$$

MDZ501>502-221400-
WESTERN MARYLAND

CITY           SKY/WX    TMP DP  RH WIND       PRES   REMARKS
OAKLAND*       SUNNY     68  63  83 SW7       30.12S
CUMBERLAND*    CLOUDY    68  68 100 CALM      30.09F VSB<1/4

$$

VAZ025>031-221400-
SHENANDOAH VALLEY

CITY           SKY/WX    TMP DP  RH WIND       PRES   REMARKS
WINCHESTER*    SUNNY     77  68  73 SW10      30.05F
FRONT ROYAL*   SUNNY     77  72  83 SW6       30.05F
LURAY*         SUNNY     73  72  94 SW3       30.07F
NEW MARKET*    SUNNY     74  69  85 SW3       30.07F
STAUNTON*      SUNNY     76  70  82 SW5       30.11F
WAYNESBORO*    SUNNY     75  71  87 CALM      30.12F

$$

WVZ021-048>050-054>055-221400-
EASTERN WEST VIRGINIA PANHANDLE

CITY           SKY/WX    TMP DP  RH WIND       PRES   REMARKS
MARTINSBURG    SUNNY     76  69  79 SW5       30.03F
PETERSBURG*    SUNNY     72  69  92 CALM      30.06F

$$

VAZ036>039-050-221400-
CENTRAL FOOTHILLS

CITY           SKY/WX    TMP DP  RH WIND       PRES   REMARKS
CHARLOTTESVILL SUNNY     78  72  81 S8        30.06F
CULPEPER*      MOSUNNY   77  73  86 SW5       30.05F
ORANGE*        SUNNY     75  72  88 CALM      30.06F
GORDONSVILLE*  SUNNY     74  73  93 SW7       30.06F
WARRENTON*     SUNNY     77  71  80 SW3       30.04F

$$

VAZ055>057-221400-
NORTH AND CENTRAL PIEDMONT

CITY           SKY/WX    TMP DP  RH WIND       PRES   REMARKS
FREDERICKSBRG* SUNNY     78  76  95 S5        30.04F
STAFFORD*      SUNNY     76  75  99 SW5       30.09F

$$

NCZ024-NYZ072-PAZ021-071-VAZ022-071-221400-
OTHER REGIONAL OBSERVATIONS

CITY           SKY/WX    TMP DP  RH WIND       PRES   REMARKS
NEW YORK CITY  MOSUNNY   77  72  84 VRB7      30.04F HAZE
PHILADELPHIA   CLOUDY    79  73  82 SW10      30.03F
PITTSBURGH     PTSUNNY   77  69  76 S9        29.99F
ROANOKE        PTSUNNY   74  71  91 W5        30.14F
RICHMOND       MOSUNNY   79  74  84 SW9       30.08F
RALEIGH        MOSUNNY   80  75  84 SW6       30.13S

$$

ANZ530>537-221400-
MARINE OBSERVATIONS

STATION/POSITION TIME  TEMP    WIND        PRES
                       AIR SEA DIR/SP/G
                 (UTC) (F)     (DEG/KT/KT) (MB)
THOMAS PT LIGHT  1300   79 81  210/  7/  8   N/A
BALT KEY BRIDGE  1242   76     240/  3/  3 1016.9F
COVE POINT       1242   80     240/ 12/ 17 1018.1F
LEWISETTA        1242   80 83  240/  9/ 11 1018.0F
SOLOMONS ISLAND  1242   80 82  220/ 15/ 17   N/A
PINEY POINT      1242          240/  3/  7   N/A

$$




USA.gov is the U.S. government's official web portal to all federal, state and local government web resources and services.